JLY7974 SBEG-SBKP

Flight info

Callsign JLY7974
Flight time N/A
Altitude 35000
Route ETAXA UZ87 DINAD/N0461F370 UZ87 PALCA UM411 UTLOT
Aircraft B738/M-SDE2E3FGHIRWXY/LB1

Departure

Time 2026-05-07 21:25
Airport Eduardo Gomes International Airport (SBEG)

Arrival

Time N/A
Airport Viracopos International Airport (SBKP)
Time Latitude Longitude Altitude Speed Heading
2026-05-07 21:03 -3.03282 -60.04594 298 ft 0 kts 330°
2026-05-07 21:16 -3.03283 -60.04594 298 ft 2 kts 330°
2026-05-07 21:17 -3.03301 -60.04579 302 ft 4 kts 294°
2026-05-07 21:17 -3.03306 -60.04554 301 ft 4 kts 265°
2026-05-07 21:17 -3.03305 -60.04544 302 ft 1 kts 265°
2026-05-07 21:20 -3.03313 -60.04566 299 ft 6 kts 237°
2026-05-07 21:20 -3.03344 -60.04607 298 ft 9 kts 234°
2026-05-07 21:20 -3.03356 -60.04674 298 ft 12 kts 271°
2026-05-07 21:20 -3.03373 -60.04763 300 ft 15 kts 250°
2026-05-07 21:21 -3.03441 -60.04854 297 ft 18 kts 222°
2026-05-07 21:21 -3.03534 -60.04931 297 ft 17 kts 229°
2026-05-07 21:21 -3.03587 -60.05035 296 ft 17 kts 254°
2026-05-07 21:21 -3.03617 -60.05144 296 ft 16 kts 254°
2026-05-07 21:22 -3.03646 -60.05249 295 ft 16 kts 255°
2026-05-07 21:22 -3.03673 -60.05363 295 ft 18 kts 259°
2026-05-07 21:22 -3.03689 -60.05491 296 ft 19 kts 267°
2026-05-07 21:22 -3.03689 -60.05622 296 ft 18 kts 270°
2026-05-07 21:23 -3.03688 -60.05748 297 ft 18 kts 270°
2026-05-07 21:23 -3.03688 -60.05870 295 ft 17 kts 270°
2026-05-07 21:23 -3.03691 -60.05988 296 ft 17 kts 267°
2026-05-07 21:23 -3.03696 -60.06101 292 ft 16 kts 267°
2026-05-07 21:24 -3.03735 -60.06166 292 ft 9 kts 211°
2026-05-07 21:24 -3.03795 -60.06176 292 ft 9 kts 171°
2026-05-07 21:24 -3.03846 -60.06148 295 ft 9 kts 127°
2026-05-07 21:24 -3.03855 -60.06027 293 ft 42 kts 90°
2026-05-07 21:25 -3.03856 -60.05490 294 ft 110 kts 90°
2026-05-07 21:25 -3.03858 -60.04523 331 ft 162 kts 90°
2026-05-07 21:25 -3.03861 -60.03328 802 ft 181 kts 91°
2026-05-07 21:25 -3.03877 -60.02470 1190 ft 191 kts 91°
2026-05-07 21:26 -3.03881 -60.00651 2114 ft 202 kts 90°
2026-05-07 21:26 -3.04184 -59.99209 2304 ft 226 kts 123°
2026-05-07 21:26 -3.05413 -59.98170 2622 ft 240 kts 150°
2026-05-07 21:26 -3.06402 -59.97608 2935 ft 244 kts 150°
2026-05-07 21:27 -3.07884 -59.96756 3475 ft 248 kts 149°
2026-05-07 21:27 -3.09418 -59.95852 3811 ft 265 kts 148°
2026-05-07 21:27 -3.11009 -59.94889 4363 ft 274 kts 147°
2026-05-07 21:27 -3.12635 -59.93886 5215 ft 274 kts 147°
2026-05-07 21:28 -3.14252 -59.92873 6082 ft 274 kts 146°
2026-05-07 21:28 -3.15869 -59.91850 6851 ft 277 kts 146°
2026-05-07 21:28 -3.17508 -59.90804 7547 ft 281 kts 146°
2026-05-07 21:28 -3.19163 -59.89742 8250 ft 284 kts 146°
2026-05-07 21:29 -3.20833 -59.88666 8958 ft 287 kts 146°
2026-05-07 21:29 -3.22519 -59.87578 9688 ft 290 kts 146°
2026-05-07 21:29 -3.24226 -59.86474 10235 ft 298 kts 146°
2026-05-07 21:29 -3.26034 -59.85303 10386 ft 320 kts 146°
2026-05-07 21:30 -3.27964 -59.84052 10536 ft 341 kts 146°
2026-05-07 21:30 -3.30012 -59.82724 10688 ft 359 kts 146°
2026-05-07 21:30 -3.32142 -59.81345 11032 ft 369 kts 146°
2026-05-07 21:30 -3.34307 -59.79943 11559 ft 372 kts 146°
2026-05-07 21:31 -3.36487 -59.78531 12135 ft 374 kts 146°
2026-05-07 21:31 -3.38682 -59.77109 12677 ft 377 kts 146°
2026-05-07 21:31 -3.40895 -59.75674 13202 ft 381 kts 146°
2026-05-07 21:31 -3.43132 -59.74224 13720 ft 384 kts 146°
2026-05-07 21:32 -3.45380 -59.72766 14190 ft 387 kts 146°
2026-05-07 21:32 -3.47642 -59.71299 14675 ft 389 kts 146°
2026-05-07 21:32 -3.49917 -59.69824 15152 ft 391 kts 146°
2026-05-07 21:32 -3.52209 -59.68338 15619 ft 393 kts 146°
2026-05-07 21:33 -3.54534 -59.66885 16069 ft 396 kts 149°
2026-05-07 21:33 -3.56948 -59.65539 16520 ft 398 kts 150°
2026-05-07 21:33 -3.59404 -59.64237 16961 ft 401 kts 151°
2026-05-07 21:33 -3.61880 -59.62939 17399 ft 403 kts 151°
2026-05-07 21:34 -3.64372 -59.61628 17814 ft 406 kts 150°
2026-05-07 21:34 -3.66874 -59.60302 18214 ft 408 kts 150°
2026-05-07 21:34 -3.69381 -59.58963 18559 ft 411 kts 150°
2026-05-07 21:34 -3.71911 -59.57606 18910 ft 412 kts 150°
2026-05-07 21:35 -3.74441 -59.56244 19275 ft 414 kts 150°
2026-05-07 21:35 -3.76983 -59.54875 19636 ft 416 kts 150°
2026-05-07 21:35 -3.79536 -59.53498 19990 ft 417 kts 150°
2026-05-07 21:35 -3.82061 -59.52136 20333 ft 419 kts 150°
2026-05-07 21:36 -3.84629 -59.50751 20666 ft 421 kts 150°
2026-05-07 21:36 -3.87215 -59.49356 20989 ft 423 kts 150°
2026-05-07 21:36 -3.89814 -59.47955 21304 ft 425 kts 150°
2026-05-07 21:36 -3.92422 -59.46548 21616 ft 427 kts 150°
2026-05-07 21:37 -3.95040 -59.45136 21932 ft 428 kts 150°
2026-05-07 21:37 -3.97661 -59.43723 22293 ft 428 kts 150°
2026-05-07 21:37 -4.00291 -59.42304 22597 ft 430 kts 149°
2026-05-07 21:37 -4.02933 -59.40878 22867 ft 432 kts 149°
2026-05-07 21:38 -4.05585 -59.39447 23133 ft 434 kts 149°
2026-05-07 21:38 -4.08252 -59.38008 23418 ft 436 kts 149°
2026-05-07 21:38 -4.10924 -59.36566 23647 ft 437 kts 150°
2026-05-07 21:38 -4.13606 -59.35119 23862 ft 439 kts 150°
2026-05-07 21:39 -4.16304 -59.33663 24072 ft 440 kts 150°
2026-05-07 21:39 -4.19005 -59.32206 24286 ft 442 kts 150°
2026-05-07 21:39 -4.21717 -59.30744 24480 ft 444 kts 150°
2026-05-07 21:39 -4.24446 -59.29273 24659 ft 446 kts 150°
2026-05-07 21:40 -4.27186 -59.27798 24875 ft 448 kts 150°
2026-05-07 21:40 -4.29929 -59.26319 25113 ft 448 kts 150°
2026-05-07 21:40 -4.32680 -59.24837 25328 ft 449 kts 150°
2026-05-07 21:40 -4.35442 -59.23348 25504 ft 451 kts 150°
2026-05-07 21:41 -4.38209 -59.21855 25683 ft 453 kts 150°
2026-05-07 21:41 -4.40988 -59.20356 25881 ft 454 kts 150°
2026-05-07 21:41 -4.43777 -59.18852 26074 ft 456 kts 150°
2026-05-07 21:41 -4.46570 -59.17345 26262 ft 457 kts 150°
2026-05-07 21:42 -4.49377 -59.15831 26444 ft 459 kts 150°
2026-05-07 21:42 -4.52188 -59.14314 26616 ft 460 kts 150°
2026-05-07 21:42 -4.55012 -59.12790 26796 ft 461 kts 150°
2026-05-07 21:42 -4.57843 -59.11263 26976 ft 463 kts 150°
2026-05-07 21:43 -4.60682 -59.09731 27137 ft 464 kts 150°
2026-05-07 21:43 -4.63530 -59.08193 27302 ft 466 kts 150°
2026-05-07 21:43 -4.66386 -59.06652 27471 ft 467 kts 150°
2026-05-07 21:43 -4.69249 -59.05106 27636 ft 468 kts 150°
2026-05-07 21:44 -4.72123 -59.03555 27794 ft 470 kts 150°
2026-05-07 21:44 -4.75001 -59.02001 27943 ft 471 kts 150°
2026-05-07 21:44 -4.77854 -59.00460 28102 ft 472 kts 150°
2026-05-07 21:44 -4.80786 -58.98877 28260 ft 473 kts 150°
2026-05-07 21:45 -4.83688 -58.97310 28409 ft 474 kts 151°
2026-05-07 21:45 -4.86559 -58.95759 28557 ft 476 kts 151°
2026-05-07 21:45 -4.89474 -58.94184 28714 ft 476 kts 151°
2026-05-07 21:45 -4.92392 -58.92608 28928 ft 476 kts 151°
2026-05-07 21:46 -4.95306 -58.91033 29164 ft 475 kts 151°
2026-05-07 21:46 -4.98218 -58.89460 29389 ft 475 kts 151°
2026-05-07 21:46 -5.01128 -58.87888 29597 ft 475 kts 151°
2026-05-07 21:46 -5.04037 -58.86315 29820 ft 475 kts 151°
2026-05-07 21:47 -5.06940 -58.84746 30029 ft 474 kts 151°
2026-05-07 21:47 -5.09844 -58.83176 30218 ft 474 kts 151°
2026-05-07 21:47 -5.12749 -58.81605 30402 ft 474 kts 151°
2026-05-07 21:47 -5.15651 -58.80036 30601 ft 473 kts 151°
2026-05-07 21:48 -5.18550 -58.78469 30805 ft 473 kts 151°
2026-05-07 21:48 -5.21445 -58.76903 30998 ft 473 kts 151°
2026-05-07 21:48 -5.24348 -58.75333 31189 ft 473 kts 151°
2026-05-07 21:48 -5.27205 -58.73788 31390 ft 472 kts 151°
2026-05-07 21:49 -5.30095 -58.72224 31627 ft 471 kts 151°
2026-05-07 21:49 -5.32977 -58.70665 31887 ft 470 kts 151°
2026-05-07 21:49 -5.35890 -58.69089 32107 ft 469 kts 152°
2026-05-07 21:49 -5.38767 -58.67532 32285 ft 470 kts 152°
2026-05-07 21:50 -5.41601 -58.65998 32491 ft 470 kts 152°
2026-05-07 21:50 -5.44482 -58.64438 32635 ft 471 kts 152°
2026-05-07 21:50 -5.47361 -58.62880 32882 ft 469 kts 152°
2026-05-07 21:50 -5.50235 -58.61324 33143 ft 468 kts 152°
2026-05-07 21:51 -5.53108 -58.59768 33309 ft 469 kts 152°
2026-05-07 21:51 -5.55978 -58.58214 33446 ft 471 kts 152°
2026-05-07 21:51 -5.58866 -58.56650 33638 ft 471 kts 152°
2026-05-07 21:51 -5.61746 -58.55090 33876 ft 470 kts 152°
2026-05-07 21:52 -5.64613 -58.53537 34087 ft 469 kts 152°
2026-05-07 21:52 -5.67486 -58.51981 34268 ft 469 kts 152°
2026-05-07 21:52 -5.70354 -58.50426 34444 ft 468 kts 152°
2026-05-07 21:52 -5.73221 -58.48873 34643 ft 467 kts 152°
2026-05-07 21:53 -5.76080 -58.47323 34846 ft 467 kts 152°
2026-05-07 21:53 -5.78937 -58.45775 35017 ft 467 kts 152°
2026-05-07 21:53 -5.81793 -58.44227 35184 ft 466 kts 152°
2026-05-07 21:53 -5.84647 -58.42679 35373 ft 466 kts 153°
2026-05-07 21:54 -5.87489 -58.41138 35573 ft 464 kts 153°
2026-05-07 21:54 -5.90331 -58.39597 35756 ft 464 kts 153°
2026-05-07 21:54 -5.93172 -58.38056 35908 ft 464 kts 153°
2026-05-07 21:54 -5.96007 -58.36519 36080 ft 463 kts 153°
2026-05-07 21:55 -5.98845 -58.34979 36262 ft 462 kts 153°
2026-05-07 21:55 -6.01637 -58.33465 36436 ft 462 kts 153°
2026-05-07 21:55 -6.04460 -58.31933 36589 ft 461 kts 153°
2026-05-07 21:55 -6.07287 -58.30399 36748 ft 461 kts 153°
2026-05-07 21:56 -6.10109 -58.28867 36857 ft 461 kts 153°
2026-05-07 21:56 -6.12940 -58.27331 36856 ft 463 kts 153°
2026-05-07 21:56 -6.18604 -58.24256 36865 ft 461 kts 153°
2026-05-07 21:57 -6.24229 -58.21202 36860 ft 458 kts 153°
2026-05-07 21:57 -6.29826 -58.18161 36861 ft 456 kts 153°
2026-05-07 21:58 -6.35393 -58.15137 36866 ft 454 kts 153°
2026-05-07 21:58 -6.40954 -58.12115 36868 ft 454 kts 153°
2026-05-07 21:59 -6.46519 -58.09090 36872 ft 455 kts 153°
2026-05-07 21:59 -6.52096 -58.06059 36868 ft 456 kts 153°
2026-05-07 22:00 -6.57686 -58.03019 36870 ft 457 kts 153°
2026-05-07 22:00 -6.63292 -57.99969 36871 ft 459 kts 153°
2026-05-07 22:01 -6.68875 -57.96932 36866 ft 460 kts 153°
2026-05-07 22:01 -6.74509 -57.93865 36869 ft 461 kts 153°
2026-05-07 22:02 -6.80149 -57.90795 36869 ft 461 kts 153°
2026-05-07 22:02 -6.85799 -57.87718 36869 ft 462 kts 153°
2026-05-07 22:03 -6.91445 -57.84642 36870 ft 461 kts 153°
2026-05-07 22:03 -6.97086 -57.81569 36870 ft 461 kts 153°
2026-05-07 22:04 -7.02718 -57.78500 36873 ft 460 kts 153°
2026-05-07 22:04 -7.08353 -57.75428 36875 ft 459 kts 153°
2026-05-07 22:05 -7.13967 -57.72367 36872 ft 458 kts 152°
2026-05-07 22:05 -7.19528 -57.69333 36872 ft 457 kts 152°
2026-05-07 22:06 -7.25120 -57.66283 36875 ft 457 kts 152°
2026-05-07 22:06 -7.30702 -57.63236 36871 ft 456 kts 153°
2026-05-07 22:07 -7.36280 -57.60191 36875 ft 456 kts 153°
2026-05-07 22:07 -7.41852 -57.57148 36873 ft 455 kts 152°
2026-05-07 22:08 -7.47422 -57.54106 36878 ft 455 kts 152°
2026-05-07 22:08 -7.52995 -57.51061 36878 ft 456 kts 152°
2026-05-07 22:09 -7.58584 -57.48006 36879 ft 457 kts 152°
2026-05-07 22:09 -7.64176 -57.44949 36877 ft 457 kts 152°
2026-05-07 22:10 -7.69776 -57.41887 36879 ft 458 kts 152°
2026-05-07 22:10 -7.75378 -57.38822 36878 ft 459 kts 152°
2026-05-07 22:11 -7.80045 -57.36268 36875 ft 459 kts 153°
2026-05-07 22:11 -7.86612 -57.32673 36876 ft 460 kts 153°
2026-05-07 22:12 -7.91285 -57.30115 36873 ft 460 kts 153°
2026-05-07 22:12 -7.96907 -57.27036 36876 ft 460 kts 153°
2026-05-07 22:13 -8.02531 -57.23954 36881 ft 460 kts 153°
2026-05-07 22:13 -8.08152 -57.20874 36875 ft 459 kts 153°
2026-05-07 22:14 -8.13763 -57.17798 36877 ft 459 kts 153°
2026-05-07 22:14 -8.19368 -57.14724 36883 ft 458 kts 153°
2026-05-07 22:15 -8.24967 -57.11653 36882 ft 457 kts 153°
2026-05-07 22:15 -8.30552 -57.08588 36876 ft 457 kts 153°
2026-05-07 22:16 -8.36128 -57.05527 36881 ft 456 kts 153°
2026-05-07 22:16 -8.41706 -57.02464 36877 ft 456 kts 153°
2026-05-07 22:17 -8.47275 -56.99405 36878 ft 455 kts 153°
2026-05-07 22:17 -8.52841 -56.96347 36872 ft 455 kts 153°
2026-05-07 22:18 -8.61194 -56.91757 36876 ft 456 kts 154°
2026-05-07 22:19 -8.66733 -56.88711 36867 ft 456 kts 154°
2026-05-07 22:19 -8.72315 -56.85639 36866 ft 457 kts 154°
2026-05-07 22:20 -8.77905 -56.82563 36867 ft 458 kts 154°
2026-05-07 22:20 -8.83499 -56.79483 36859 ft 458 kts 154°
2026-05-07 22:21 -8.89096 -56.76401 36864 ft 459 kts 154°
2026-05-07 22:21 -8.94704 -56.73311 36861 ft 459 kts 154°
2026-05-07 22:22 -9.00314 -56.70220 36861 ft 459 kts 154°
2026-05-07 22:22 -9.05927 -56.67126 36864 ft 459 kts 154°
2026-05-07 22:23 -9.11541 -56.64030 36860 ft 460 kts 154°
2026-05-07 22:23 -9.17154 -56.60933 36866 ft 460 kts 154°
2026-05-07 22:24 -9.22776 -56.57830 36858 ft 460 kts 154°
2026-05-07 22:24 -9.28350 -56.54753 36865 ft 460 kts 154°
2026-05-07 22:25 -9.33966 -56.51651 36862 ft 460 kts 154°
2026-05-07 22:25 -9.39577 -56.48551 36863 ft 460 kts 154°
2026-05-07 22:26 -9.45197 -56.45445 36865 ft 460 kts 154°
2026-05-07 22:26 -9.50805 -56.42344 36866 ft 459 kts 154°
2026-05-07 22:27 -9.56412 -56.39242 36858 ft 459 kts 154°
2026-05-07 22:27 -9.62020 -56.36139 36863 ft 459 kts 154°
2026-05-07 22:28 -9.67625 -56.33035 36865 ft 459 kts 154°
2026-05-07 22:28 -9.73224 -56.29935 36871 ft 458 kts 154°
2026-05-07 22:29 -9.78822 -56.26835 36860 ft 458 kts 154°
2026-05-07 22:29 -9.84382 -56.23754 36882 ft 458 kts 154°
2026-05-07 22:30 -9.89981 -56.20649 36885 ft 458 kts 154°
2026-05-07 22:30 -9.95576 -56.17545 36883 ft 458 kts 154°
2026-05-07 22:31 -10.01170 -56.14440 36881 ft 458 kts 154°
2026-05-07 22:31 -10.06766 -56.11333 36878 ft 458 kts 154°
2026-05-07 22:32 -10.12361 -56.08226 36873 ft 458 kts 154°
2026-05-07 22:32 -10.17951 -56.05119 36872 ft 458 kts 154°
2026-05-07 22:33 -10.23552 -56.02006 36867 ft 458 kts 154°
2026-05-07 22:33 -10.29148 -55.98894 36872 ft 458 kts 154°
2026-05-07 22:34 -10.34742 -55.95782 36879 ft 458 kts 154°
2026-05-07 22:34 -10.40335 -55.92669 36877 ft 459 kts 154°
2026-05-07 22:35 -10.45900 -55.89570 36872 ft 459 kts 154°
2026-05-07 22:35 -10.51498 -55.86452 36869 ft 459 kts 154°
2026-05-07 22:36 -10.57100 -55.83330 36868 ft 459 kts 154°
2026-05-07 22:36 -10.62696 -55.80210 36883 ft 459 kts 154°
2026-05-07 22:37 -10.68308 -55.77080 36873 ft 459 kts 154°
2026-05-07 22:37 -10.73913 -55.73953 36875 ft 459 kts 154°
2026-05-07 22:38 -10.79518 -55.70824 36863 ft 459 kts 154°
2026-05-07 22:38 -10.85118 -55.67697 36880 ft 459 kts 154°
2026-05-07 22:39 -10.90721 -55.64566 36886 ft 459 kts 154°
2026-05-07 22:39 -10.96320 -55.61437 36877 ft 459 kts 154°
2026-05-07 22:40 -11.01919 -55.58305 36878 ft 459 kts 154°
2026-05-07 22:40 -11.07518 -55.55173 36873 ft 459 kts 154°
2026-05-07 22:41 -11.13118 -55.52038 36886 ft 459 kts 154°
2026-05-07 22:41 -11.18679 -55.48923 36884 ft 459 kts 154°
2026-05-07 22:42 -11.24277 -55.45787 36877 ft 459 kts 154°
2026-05-07 22:42 -11.29970 -55.42869 36888 ft 457 kts 158°
2026-05-07 22:43 -11.35761 -55.40189 36876 ft 457 kts 159°
2026-05-07 22:43 -11.41556 -55.37498 36888 ft 458 kts 159°
2026-05-07 22:44 -11.47339 -55.34772 36888 ft 458 kts 158°
2026-05-07 22:44 -11.53116 -55.32033 36884 ft 458 kts 158°
2026-05-07 22:45 -11.58897 -55.29290 36883 ft 458 kts 158°
2026-05-07 22:45 -11.64681 -55.26546 36881 ft 459 kts 158°
2026-05-07 22:46 -11.70465 -55.23801 36884 ft 458 kts 158°
2026-05-07 22:46 -11.76238 -55.21017 36880 ft 459 kts 156°
2026-05-07 22:47 -11.81856 -55.17880 36884 ft 461 kts 154°
2026-05-07 22:47 -11.87424 -55.14633 36888 ft 461 kts 154°
2026-05-07 22:48 -11.92964 -55.11434 36889 ft 460 kts 154°
2026-05-07 22:48 -11.98558 -55.08237 36889 ft 460 kts 154°
2026-05-07 22:49 -12.04150 -55.05050 36885 ft 460 kts 154°
2026-05-07 22:49 -12.09746 -55.01859 36888 ft 460 kts 154°
2026-05-07 22:50 -12.15342 -54.98664 36891 ft 460 kts 154°
2026-05-07 22:50 -12.20931 -54.95471 36892 ft 460 kts 154°
2026-05-07 22:51 -12.26520 -54.92277 36891 ft 460 kts 154°
2026-05-07 22:51 -12.32108 -54.89081 36895 ft 460 kts 154°
2026-05-07 22:52 -12.37696 -54.85884 36895 ft 460 kts 154°
2026-05-07 22:52 -12.43286 -54.82684 36891 ft 460 kts 154°
2026-05-07 22:53 -12.48884 -54.79501 36894 ft 460 kts 155°
2026-05-07 22:53 -12.54505 -54.76365 36896 ft 460 kts 155°
2026-05-07 22:54 -12.60127 -54.73221 36899 ft 460 kts 155°
2026-05-07 22:54 -12.65748 -54.70062 36896 ft 460 kts 154°
2026-05-07 22:55 -12.71356 -54.66892 36892 ft 460 kts 154°
2026-05-07 22:55 -12.76962 -54.63722 36895 ft 460 kts 154°
2026-05-07 22:56 -12.82535 -54.60571 36897 ft 460 kts 154°
2026-05-07 22:56 -12.88178 -54.57380 36895 ft 460 kts 155°
2026-05-07 22:57 -12.92843 -54.54749 36898 ft 460 kts 155°
2026-05-07 22:57 -12.99407 -54.51049 36899 ft 460 kts 155°
2026-05-07 22:58 -13.04979 -54.47905 36900 ft 460 kts 155°
2026-05-07 22:58 -13.09682 -54.45249 36900 ft 460 kts 155°
2026-05-07 22:59 -13.16203 -54.41564 36904 ft 460 kts 155°
2026-05-07 22:59 -13.20905 -54.38906 36904 ft 461 kts 155°
2026-05-07 23:00 -13.26520 -54.35729 36906 ft 461 kts 155°
2026-05-07 23:00 -13.32100 -54.32571 36913 ft 461 kts 155°
2026-05-07 23:01 -13.37721 -54.29388 36912 ft 461 kts 155°
2026-05-07 23:01 -13.43339 -54.26205 36913 ft 461 kts 155°
2026-05-07 23:02 -13.48961 -54.23018 36913 ft 462 kts 155°
2026-05-07 23:02 -13.54587 -54.19827 36912 ft 462 kts 155°
2026-05-07 23:03 -13.60212 -54.16635 36913 ft 462 kts 155°
2026-05-07 23:03 -13.65841 -54.13438 36917 ft 462 kts 155°
2026-05-07 23:04 -13.71478 -54.10236 36917 ft 463 kts 155°
2026-05-07 23:04 -13.77110 -54.07034 36921 ft 463 kts 155°
2026-05-07 23:05 -13.82748 -54.03827 36919 ft 463 kts 155°
2026-05-07 23:05 -13.88384 -54.00620 36912 ft 463 kts 155°
2026-05-07 23:06 -13.94014 -53.97414 36931 ft 462 kts 155°
2026-05-07 23:06 -13.99645 -53.94206 36913 ft 462 kts 155°
2026-05-07 23:07 -14.05268 -53.91000 36925 ft 462 kts 155°
2026-05-07 23:07 -14.10893 -53.87792 36924 ft 462 kts 155°
2026-05-07 23:08 -14.16510 -53.84586 36923 ft 461 kts 155°
2026-05-07 23:08 -14.22126 -53.81379 36918 ft 461 kts 155°
2026-05-07 23:09 -14.27739 -53.78172 36931 ft 461 kts 155°
2026-05-07 23:09 -14.33308 -53.74988 36928 ft 461 kts 155°
2026-05-07 23:10 -14.38913 -53.71781 36928 ft 461 kts 155°